Pagrindinis puslapis
METAR-TAF:

METAR-TAF

Oro uostai :

Taos Regional Airport

Taos, Naujoji Meksika, Jungtinės Amerikos Valstijos

platuma: 36-27N, ilguma: 105-40W, Aukštis: 2161 m

Dabartinis oras

Ataskaita buvo paskelbta 58 minutes, ne 03:56 UTC
Vėjas 6 kt iš Šiaurės/Šiaurės Rytų
Temperatūra 12°C
Drėgmė 15%
Slėgis 1023 hPa
Matomumas: 16.1 km
Giedras dangus

METAR: KSKX 140356Z AUTO 03006KT 10SM CLR 12/M14 A3022 RMK AO2 SLP188 T01221144

Laikas: 22:54 (04:54 UTC)


TAF: trūkstamas

Orai ataskaitas ir orų prognozės (METAR, TAF).

turimą stotys yra geltonos ir raudonos taškus žemėlapyje.

Perkelti pele per norėdami pamatyti stoties vardą.

Tada spustelėkite, norėdami matyti oro stebėjimo ir prognozės.

Norėdami pakeisti žemėlapį: spustelėkite ant žalios mygtukų su juodo kryžiaus žemyn,; žalią mygtuką su brūkšneliu, jei norite nutolinti; arba žalių rodyklių gretimoms žemėlapius.


METAR-TAF: